Location: Lecco
(45.8566°N, 9.3977°E)
Time: 03:00:29
(UTC+02:00)

Courier 1B Rocket - Pass Details

Date: 26 August 2019
Orbit: 920 x 1202 km, 28.2° (Epoch: 20 September)

Event Time Altitude Azimuth Distance (km) Brightness Sun altitude
Rises 07:54:30 0° 249° (WSW) 4,023 7.6 12.7°
Reaches altitude 10° 08:00:08 10° 216° (SW) 3,104 7.3 13.7°
Maximum altitude 08:01:59 11° 202° (SSW) 3,040 7.4 14.0°
Drops below altitude 10° 08:03:51 10° 188° (S) 3,120 7.6 14.4°
Sets 08:09:35 0° 155° (SSE) 4,085 8.6 15.4°
